| time (UTC) | temp F | wind direction | speed MPH | gust MPH | rain 1hr in | rain 24hr in | rain mn in | humidity % | barometer mb |
| 20260507130110 | 49 | 279 | 0.0 | 1.0 | 0.00 | 0.10 | 0.00 | 64 | 1013.6 |
| 20260507125607 | 49 | 5 | 0.0 | 3.0 | 0.00 | 0.11 | 0.00 | 69 | 1013.7 |
| 20260507125046 | 49 | 298 | 0.0 | 2.0 | 0.00 | 0.12 | 0.00 | 66 | 1013.7 |
| 20260507124740 | 48 | 313 | 0.0 | 3.0 | 0.00 | 0.12 | 0.00 | 70 | 1013.6 |
| 20260507123955 | 48 | 53 | 0.0 | 3.0 | 0.00 | 0.13 | 0.00 | 70 | 1013.6 |
| 20260507123455 | 47 | 93 | 0.0 | 3.0 | 0.00 | 0.13 | 0.00 | 68 | 1013.5 |
| 20260507122937 | 47 | 10 | 0.0 | 3.0 | 0.00 | 0.13 | 0.00 | 69 | 1013.5 |
| 20260507122418 | 47 | 52 | 0.0 | 3.0 | 0.00 | 0.14 | 0.00 | 70 | 1013.5 |
| 20260507122137 | 47 | 260 | 0.0 | 3.0 | 0.00 | 0.14 | 0.00 | 69 | 1013.5 |
| 20260507121349 | 47 | 48 | 0.0 | 2.0 | 0.00 | 0.15 | 0.00 | 73 | 1013.4 |
| 20260507121324 | 47 | 20 | 0.0 | 2.0 | 0.00 | 0.16 | 0.00 | 70 | 1013.3 |
| 20260507120613 | 47 | 79 | 0.0 | 0.0 | 0.00 | 0.16 | 0.00 | 72 | 1013.3 |
| 20260507115823 | 47 | 38 | 0.0 | 0.0 | 0.00 | 0.17 | 0.00 | 71 | 1013.4 |
| 20260507115324 | 47 | 38 | 0.0 | 0.0 | 0.00 | 0.18 | 0.00 | 72 | 1013.4 |
| 20260507115026 | 46 | 175 | 0.0 | 0.0 | 0.00 | 0.18 | 0.00 | 71 | 1013.4 |
| 20260507114528 | 46 | 205 | 0.0 | 0.0 | 0.00 | 0.20 | 0.00 | 73 | 1013.4 |
| 20260507114032 | 46 | 204 | 0.0 | 0.0 | 0.00 | 0.21 | 0.00 | 74 | 1013.4 |
| 20260507113237 | 46 | 204 | 0.0 | 0.0 | 0.00 | 0.21 | 0.00 | 73 | 1013.5 |
| 20260507112717 | 46 | 204 | 0.0 | 0.0 | 0.00 | 0.22 | 0.00 | 75 | 1013.4 |
| 20260507112150 | 46 | 205 | 0.0 | 0.0 | 0.00 | 0.23 | 0.00 | 75 | 1013.4 |
| 20260507111630 | 46 | 204 | 0.0 | 0.0 | 0.00 | 0.24 | 0.00 | 74 | 1013.5 |
| 20260507111129 | 46 | 209 | 0.0 | 0.0 | 0.00 | 0.24 | 0.00 | 72 | 1013.4 |
| 20260507110608 | 46 | 233 | 0.0 | 0.0 | 0.00 | 0.25 | 0.00 | 73 | 1013.3 |
| 20260507110041 | 46 | 233 | 0.0 | 0.0 | 0.00 | 0.25 | 0.00 | 72 | 1013.2 |
| 20260507105543 | 46 | 233 | 0.0 | 0.0 | 0.00 | 0.25 | 0.00 | 74 | 1013.2 |
| 20260507105240 | 46 | 233 | 0.0 | 2.0 | 0.00 | 0.25 | 0.00 | 75 | 1013.1 |
| 20260507104453 | 46 | 233 | 0.0 | 2.0 | 0.00 | 0.25 | 0.00 | 76 | 1013.0 |
| 20260507103924 | 46 | 233 | 0.0 | 2.0 | 0.00 | 0.25 | 0.00 | 75 | 1012.8 |
| 20260507103401 | 46 | 233 | 0.0 | 2.0 | 0.00 | 0.25 | 0.00 | 74 | 1012.9 |
| 20260507102830 | 46 | 231 | 0.0 | 3.0 | 0.00 | 0.25 | 0.00 | 75 | 1012.9 |
| 20260507102310 | 46 | 235 | 0.0 | 3.0 | 0.00 | 0.25 | 0.00 | 74 | 1012.9 |
| 20260507101806 | 46 | 254 | 0.0 | 3.0 | 0.00 | 0.25 | 0.00 | 76 | 1012.8 |
| 20260507101304 | 46 | 36 | 0.0 | 3.0 | 0.00 | 0.25 | 0.00 | 75 | 1012.7 |
| 20260507100737 | 46 | 271 | 0.0 | 0.0 | 0.00 | 0.25 | 0.00 | 77 | 1012.7 |
| 20260507100209 | 46 | 271 | 0.0 | 2.0 | 0.00 | 0.25 | 0.00 | 78 | 1012.4 |
| 20260507095707 | 46 | 85 | 0.0 | 0.0 | 0.00 | 0.25 | 0.00 | 78 | 1012.4 |
| 20260507095141 | 46 | 62 | 0.0 | 0.0 | 0.00 | 0.25 | 0.00 | 79 | 1012.4 |
| 20260507094635 | 46 | 70 | 0.0 | 0.0 | 0.00 | 0.25 | 0.00 | 81 | 1012.2 |
| 20260507094350 | 46 | 32 | 0.0 | 3.0 | 0.00 | 0.25 | 0.00 | 81 | 1012.3 |
| 20260507093626 | 46 | 32 | 0.0 | 3.0 | 0.00 | 0.25 | 0.00 | 81 | 1012.3 |
| 20260507093345 | 46 | 79 | 0.0 | 1.0 | 0.00 | 0.25 | 0.00 | 81 | 1012.3 |
| 20260507092618 | 46 | 79 | 0.0 | 1.0 | 0.00 | 0.25 | 0.00 | 81 | 1012.3 |
| 20260507092117 | 46 | 73 | 0.0 | 2.0 | 0.00 | 0.25 | 0.00 | 80 | 1012.3 |
| 20260507091547 | 46 | 73 | 0.0 | 2.0 | 0.00 | 0.25 | 0.00 | 81 | 1012.3 |
| 20260507091023 | 46 | 73 | 0.0 | 2.0 | 0.00 | 0.25 | 0.00 | 81 | 1012.3 |
| 20260507090517 | 47 | 71 | 0.0 | 2.0 | 0.00 | 0.25 | 0.00 | 81 | 1012.4 |
| 20260507090015 | 47 | 71 | 0.0 | 2.0 | 0.00 | 0.25 | 0.00 | 82 | 1012.4 |
| 20260507085739 | 47 | 71 | 0.0 | 3.0 | 0.00 | 0.25 | 0.00 | 83 | 1012.3 |
| 20260507084945 | 47 | 71 | 1.0 | 3.0 | 0.00 | 0.25 | 0.00 | 82 | 1012.3 |
| 20260507084446 | 47 | 26 | 1.0 | 3.0 | 0.00 | 0.25 | 0.00 | 85 | 1012.3 |
| 20260507083924 | 47 | 27 | 1.0 | 3.0 | 0.00 | 0.25 | 0.00 | 86 | 1012.2 |
| 20260507083616 | 47 | 25 | 0.0 | 2.0 | 0.00 | 0.25 | 0.00 | 87 | 1012.3 |
| 20260507082830 | 47 | 28 | 0.0 | 2.0 | 0.00 | 0.25 | 0.00 | 86 | 1012.3 |
| 20260507082301 | 47 | 29 | 0.0 | 2.0 | 0.00 | 0.25 | 0.00 | 86 | 1012.1 |
| 20260507082020 | 47 | 223 | 1.0 | 2.0 | 0.00 | 0.25 | 0.00 | 86 | 1012.1 |
| 20260507081255 | 48 | 223 | 1.0 | 2.0 | 0.00 | 0.25 | 0.00 | 85 | 1012.1 |
| 20260507080725 | 48 | 82 | 1.0 | 3.0 | 0.00 | 0.25 | 0.00 | 84 | 1012.0 |
| 20260507080223 | 48 | 82 | 1.0 | 3.0 | 0.00 | 0.25 | 0.00 | 84 | 1011.8 |
| 20260507075659 | 48 | 79 | 1.0 | 3.0 | 0.00 | 0.25 | 0.00 | 85 | 1011.6 |
| 20260507075127 | 48 | 285 | 1.0 | 4.0 | 0.00 | 0.25 | 0.00 | 84 | 1011.6 |
| 20260507074627 | 48 | 249 | 1.0 | 4.0 | 0.00 | 0.25 | 0.00 | 84 | 1011.7 |
| 20260507074057 | 48 | 33 | 1.0 | 4.0 | 0.00 | 0.25 | 0.00 | 85 | 1011.6 |
| 20260507073553 | 48 | 78 | 1.0 | 4.0 | 0.00 | 0.25 | 0.00 | 85 | 1011.6 |
| 20260507073054 | 47 | 56 | 1.0 | 4.0 | 0.00 | 0.25 | 0.00 | 85 | 1011.4 |
| 20260507072527 | 48 | 123 | 1.0 | 3.0 | 0.00 | 0.25 | 0.00 | 87 | 1011.5 |
| 20260507072001 | 48 | 15 | 1.0 | 2.0 | 0.00 | 0.25 | 0.00 | 87 | 1011.7 |
| 20260507071456 | 48 | 30 | 1.0 | 4.0 | 0.00 | 0.25 | 0.00 | 87 | 1012.0 |
| 20260507071214 | 48 | 42 | 1.0 | 4.0 | 0.00 | 0.25 | 0.00 | 86 | 1012.0 |
| 20260507070707 | 48 | 1 | 1.0 | 3.0 | 0.00 | 0.25 | 0.00 | 86 | 1012.2 |
| 20260507070211 | 48 | 357 | 1.0 | 3.0 | 0.00 | 0.25 | 0.00 | 86 | 1012.1 |
| 20260507065420 | 48 | 318 | 1.0 | 6.0 | 0.00 | 0.25 | 0.00 | 86 | 1012.2 |
| 20260507064916 | 48 | 317 | 1.0 | 6.0 | 0.00 | 0.25 | 0.00 | 86 | 1012.3 |
| 20260507064413 | 48 | 108 | 1.0 | 4.0 | 0.00 | 0.25 | 0.00 | 86 | 1012.2 |
| 20260507063910 | 48 | 65 | 1.0 | 3.0 | 0.00 | 0.25 | 0.00 | 86 | 1012.3 |
| 20260507063345 | 48 | 61 | 1.0 | 3.0 | 0.00 | 0.25 | 0.00 | 85 | 1012.2 |
| 20260507062839 | 48 | 97 | 1.0 | 6.0 | 0.00 | 0.25 | 0.00 | 87 | 1012.2 |
| 20260507062336 | 48 | 173 | 1.0 | 6.0 | 0.00 | 0.25 | 0.00 | 87 | 1012.1 |
| 20260507061834 | 49 | 25 | 1.0 | 3.0 | 0.00 | 0.25 | 0.00 | 88 | 1012.0 |
| 20260507061332 | 49 | 40 | 1.0 | 2.0 | 0.00 | 0.25 | 0.00 | 88 | 1012.1 |
| 20260507060804 | 49 | 40 | 1.0 | 3.0 | 0.00 | 0.25 | 0.00 | 88 | 1012.2 |
| 20260507060303 | 49 | 40 | 1.0 | 4.0 | 0.00 | 0.25 | 0.00 | 88 | 1012.1 |
| 20260507060013 | 49 | 315 | 1.0 | 4.0 | 0.00 | 0.25 | 0.00 | 88 | 1012.1 |
| 20260507055254 | 49 | 270 | 1.0 | 3.0 | 0.00 | 0.25 | 0.00 | 88 | 1012.1 |
| 20260507054726 | 49 | 38 | 1.0 | 4.0 | 0.00 | 0.25 | 0.00 | 88 | 1012.1 |
| 20260507054222 | 49 | 35 | 1.0 | 4.0 | 0.00 | 0.25 | 0.00 | 89 | 1012.0 |
| 20260507053721 | 49 | 65 | 1.0 | 3.0 | 0.00 | 0.25 | 0.00 | 88 | 1011.9 |
| 20260507053155 | 49 | 15 | 1.0 | 3.0 | 0.00 | 0.25 | 0.00 | 88 | 1012.2 |
| 20260507052626 | 49 | 15 | 1.0 | 3.0 | 0.00 | 0.25 | 0.00 | 88 | 1012.0 |
| 20260507052122 | 50 | 81 | 1.0 | 4.0 | 0.00 | 0.25 | 0.00 | 88 | 1012.0 |
| 20260507051616 | 49 | 81 | 1.0 | 4.0 | 0.00 | 0.25 | 0.00 | 88 | 1012.0 |
| 20260507051114 | 50 | 191 | 1.0 | 4.0 | 0.00 | 0.25 | 0.00 | 88 | 1012.0 |
| 20260507050807 | 49 | 106 | 1.0 | 4.0 | 0.00 | 0.25 | 0.00 | 87 | 1012.1 |
| 20260507050044 | 49 | 210 | 1.0 | 4.0 | 0.00 | 0.25 | 0.00 | 88 | 1012.0 |
| 20260507045516 | 49 | 155 | 1.0 | 3.0 | 0.00 | 0.25 | 0.00 | 89 | 1011.9 |
| 20260507045014 | 49 | 81 | 1.0 | 4.0 | 0.00 | 0.25 | 0.00 | 89 | 1012.0 |
| 20260507044446 | 49 | 65 | 1.0 | 4.0 | 0.00 | 0.25 | 0.00 | 90 | 1011.7 |
| 20260507043945 | 49 | 279 | 1.0 | 4.0 | 0.00 | 0.25 | 0.00 | 90 | 1011.7 |
| 20260507043423 | 49 | 84 | 1.0 | 4.0 | 0.00 | 0.25 | 0.00 | 90 | 1011.8 |
| 20260507042847 | 49 | 31 | 1.0 | 4.0 | 0.00 | 0.25 | 0.00 | 90 | 1011.8 |
| 20260507042609 | 50 | 15 | 1.0 | 3.0 | 0.00 | 0.25 | 0.00 | 91 | 1012.0 |
| 20260507041835 | 50 | 59 | 1.0 | 4.0 | 0.00 | 0.25 | 0.00 | 91 | 1012.2 |
| 20260507041330 | 50 | 160 | 1.0 | 5.0 | 0.00 | 0.25 | 0.00 | 91 | 1012.1 |
| 20260507040835 | 50 | 356 | 1.0 | 5.0 | 0.00 | 0.25 | 0.00 | 91 | 1012.1 |
| 20260507040327 | 50 | 319 | 1.0 | 3.0 | 0.00 | 0.25 | 0.00 | 91 | 1012.2 |
| 20260507035829 | 50 | 229 | 1.0 | 4.0 | 0.00 | 0.25 | 0.25 | 92 | 1011.9 |
| 20260507035328 | 50 | 107 | 1.0 | 4.0 | 0.00 | 0.25 | 0.25 | 92 | 1012.0 |
| 20260507034827 | 50 | 42 | 1.0 | 5.0 | 0.00 | 0.25 | 0.25 | 92 | 1011.9 |
| 20260507034325 | 50 | 41 | 1.0 | 5.0 | 0.00 | 0.25 | 0.25 | 92 | 1011.8 |
| 20260507033803 | 51 | 40 | 1.0 | 5.0 | 0.00 | 0.25 | 0.25 | 92 | 1012.1 |
| 20260507033240 | 51 | 298 | 1.0 | 5.0 | 0.00 | 0.25 | 0.25 | 92 | 1011.9 |
| 20260507033011 | 51 | 119 | 1.0 | 4.0 | 0.00 | 0.25 | 0.25 | 92 | 1012.1 |
| 20260507032225 | 51 | 5 | 1.0 | 4.0 | 0.00 | 0.25 | 0.25 | 92 | 1011.9 |
| 20260507031727 | 51 | 356 | 1.0 | 4.0 | 0.00 | 0.25 | 0.25 | 92 | 1012.0 |
| 20260507031223 | 51 | 281 | 2.0 | 6.0 | 0.00 | 0.25 | 0.25 | 92 | 1011.8 |
| 20260507030726 | 51 | 34 | 2.0 | 6.0 | 0.00 | 0.25 | 0.25 | 92 | 1012.0 |
| 20260507030202 | 51 | 151 | 1.0 | 6.0 | 0.00 | 0.25 | 0.25 | 92 | 1012.0 |
| 20260507025646 | 51 | 213 | 1.0 | 6.0 | 0.00 | 0.25 | 0.25 | 92 | 1012.0 |
| 20260507025143 | 51 | 73 | 1.0 | 6.0 | 0.00 | 0.25 | 0.25 | 93 | 1011.5 |
| 20260507024905 | 51 | 142 | 1.0 | 6.0 | 0.00 | 0.25 | 0.25 | 93 | 1011.4 |
| 20260507024133 | 51 | 313 | 2.0 | 6.0 | 0.00 | 0.25 | 0.25 | 93 | 1011.4 |
| 20260507023603 | 51 | 300 | 2.0 | 4.0 | 0.00 | 0.25 | 0.25 | 93 | 1011.2 |
| 20260507023042 | 52 | 334 | 1.0 | 4.0 | 0.00 | 0.25 | 0.25 | 94 | 1011.5 |
| 20260507022530 | 52 | 260 | 1.0 | 4.0 | 0.00 | 0.25 | 0.25 | 94 | 1011.5 |
| 20260507022029 | 52 | 128 | 1.0 | 4.0 | 0.00 | 0.25 | 0.25 | 94 | 1011.4 |
| 20260507021510 | 52 | 231 | 1.0 | 4.0 | 0.00 | 0.25 | 0.25 | 94 | 1011.4 |
| 20260507021011 | 52 | 183 | 2.0 | 7.0 | 0.00 | 0.25 | 0.25 | 94 | 1011.5 |
| 20260507020510 | 52 | 267 | 1.0 | 7.0 | 0.00 | 0.25 | 0.25 | 94 | 1011.4 |
| 20260507020005 | 52 | 309 | 1.0 | 3.0 | 0.00 | 0.25 | 0.25 | 94 | 1011.4 |
| 20260507015441 | 52 | 281 | 1.0 | 3.0 | 0.00 | 0.25 | 0.25 | 95 | 1011.5 |
| 20260507015201 | 52 | 322 | 1.0 | 2.0 | 0.00 | 0.25 | 0.25 | 95 | 1011.4 |
| 20260507014436 | 52 | 108 | 1.0 | 3.0 | 0.00 | 0.25 | 0.25 | 95 | 1011.4 |
| 20260507013913 | 52 | 314 | 2.0 | 4.0 | 0.00 | 0.25 | 0.25 | 95 | 1011.3 |
| 20260507013349 | 53 | 31 | 2.0 | 4.0 | 0.00 | 0.25 | 0.25 | 95 | 1011.4 |
| 20260507012822 | 53 | 329 | 2.0 | 4.0 | 0.00 | 0.25 | 0.25 | 95 | 1011.5 |
| 20260507012256 | 53 | 330 | 1.0 | 3.0 | 0.00 | 0.25 | 0.25 | 95 | 1011.3 |
| 20260507011741 | 53 | 249 | 1.0 | 3.0 | 0.00 | 0.25 | 0.25 | 95 | 1011.4 |
| 20260507011232 | 53 | 278 | 1.0 | 3.0 | 0.00 | 0.25 | 0.25 | 95 | 1011.6 |
| 20260507010730 | 53 | 278 | 1.0 | 4.0 | 0.00 | 0.25 | 0.25 | 95 | 1011.5 |
| 20260507010230 | 54 | 21 | 1.0 | 4.0 | 0.00 | 0.25 | 0.25 | 95 | 1011.6 |
| 20260507005730 | 54 | 193 | 1.0 | 3.0 | 0.00 | 0.25 | 0.25 | 95 | 1011.8 |
| 20260507005228 | 54 | 322 | 1.0 | 2.0 | 0.00 | 0.25 | 0.25 | 95 | 1011.9 |
| 20260507004730 | 55 | 344 | 1.0 | 2.0 | 0.00 | 0.25 | 0.25 | 96 | 1011.8 |
| 20260507004224 | 55 | 348 | 0.0 | 2.0 | 0.00 | 0.25 | 0.25 | 96 | 1011.5 |
| 20260507003722 | 55 | 223 | 0.0 | 3.0 | 0.00 | 0.25 | 0.25 | 95 | 1011.5 |
| 20260507003219 | 55 | 223 | 1.0 | 4.0 | 0.00 | 0.25 | 0.25 | 96 | 1011.4 |
| 20260507002718 | 55 | 223 | 1.0 | 4.0 | 0.00 | 0.25 | 0.25 | 96 | 1011.6 |
| 20260507002219 | 55 | 269 | 1.0 | 2.0 | 0.00 | 0.25 | 0.25 | 96 | 1011.5 |
| 20260507001714 | 56 | 269 | 1.0 | 4.0 | 0.00 | 0.25 | 0.25 | 96 | 1011.5 |
| 20260507001210 | 56 | 19 | 1.0 | 4.0 | 0.00 | 0.25 | 0.25 | 96 | 1011.3 |
| 20260507000710 | 56 | 25 | 1.0 | 2.0 | 0.00 | 0.25 | 0.25 | 96 | 1011.4 |
| 20260507000143 | 56 | 20 | 1.0 | 2.0 | 0.00 | 0.25 | 0.25 | 95 | 1011.2 |
| 20260506235618 | 57 | 19 | 1.0 | 3.0 | 0.00 | 0.25 | 0.25 | 96 | 1011.1 |
| 20260506235050 | 57 | 278 | 1.0 | 3.0 | 0.00 | 0.25 | 0.25 | 96 | 1010.9 |
| 20260506234549 | 58 | 23 | 1.0 | 3.0 | 0.00 | 0.25 | 0.25 | 96 | 1011.0 |
| 20260506234318 | 58 | 235 | 1.0 | 3.0 | 0.00 | 0.25 | 0.25 | 96 | 1011.0 |
| 20260506233817 | 59 | 291 | 1.0 | 3.0 | 0.00 | 0.25 | 0.25 | 96 | 1010.4 |
| 20260506233051 | 59 | 167 | 1.0 | 4.0 | 0.00 | 0.25 | 0.25 | 96 | 1010.2 |
| 20260506232554 | 59 | 167 | 1.0 | 4.0 | 0.00 | 0.25 | 0.25 | 96 | 1010.2 |
| 20260506232027 | 59 | 183 | 0.0 | 2.0 | 0.00 | 0.25 | 0.25 | 96 | 1010.3 |
| 20260506231501 | 59 | 185 | 1.0 | 2.0 | 0.00 | 0.25 | 0.25 | 96 | 1010.2 |
| 20260506230939 | 59 | 187 | 1.0 | 2.0 | 0.00 | 0.25 | 0.25 | 96 | 1010.1 |
| 20260506230430 | 59 | 187 | 1.0 | 3.0 | 0.00 | 0.25 | 0.25 | 96 | 1010.1 |
| 20260506225932 | 59 | 305 | 0.0 | 3.0 | 0.00 | 0.25 | 0.25 | 96 | 1010.2 |
| 20260506225401 | 60 | 255 | 0.0 | 3.0 | 0.00 | 0.25 | 0.25 | 96 | 1010.3 |
| 20260506224903 | 60 | 255 | 0.0 | 3.0 | 0.00 | 0.25 | 0.25 | 96 | 1010.2 |
| 20260506224342 | 60 | 215 | 0.0 | 2.0 | 0.00 | 0.25 | 0.25 | 96 | 1010.2 |
| 20260506223845 | 60 | 215 | 0.0 | 2.0 | 0.00 | 0.25 | 0.25 | 96 | 1010.1 |
| 20260506223340 | 60 | 216 | 0.0 | 2.0 | 0.00 | 0.25 | 0.25 | 96 | 1009.9 |
| 20260506222846 | 60 | 217 | 0.0 | 1.0 | 0.00 | 0.25 | 0.25 | 96 | 1010.0 |
| 20260506222318 | 60 | 217 | 0.0 | 1.0 | 0.00 | 0.25 | 0.25 | 96 | 1010.0 |
| 20260506221749 | 60 | 179 | 0.0 | 1.0 | 0.00 | 0.25 | 0.25 | 96 | 1010.1 |
| 20260506221244 | 60 | 179 | 0.0 | 1.0 | 0.00 | 0.25 | 0.25 | 96 | 1010.1 |
| 20260506220739 | 60 | 179 | 0.0 | 2.0 | 0.00 | 0.25 | 0.25 | 96 | 1010.0 |
| 20260506220217 | 60 | 179 | 0.0 | 2.0 | 0.00 | 0.25 | 0.25 | 96 | 1009.9 |
| 20260506215648 | 60 | 179 | 0.0 | 1.0 | 0.00 | 0.25 | 0.25 | 96 | 1009.9 |
| 20260506215638 | 60 | 179 | 0.0 | 4.0 | 0.00 | 0.25 | 0.25 | 96 | 1010.0 |
| 20260506214619 | 60 | 179 | 1.0 | 4.0 | 0.00 | 0.25 | 0.25 | 96 | 1009.9 |
| 20260506214117 | 60 | 149 | 1.0 | 3.0 | 0.00 | 0.25 | 0.25 | 96 | 1009.9 |
| 20260506213550 | 60 | 218 | 0.0 | 2.0 | 0.00 | 0.25 | 0.25 | 96 | 1009.8 |
| 20260506213021 | 60 | 227 | 0.0 | 2.0 | 0.00 | 0.25 | 0.25 | 96 | 1009.9 |
| 20260506212520 | 60 | 227 | 0.0 | 2.0 | 0.00 | 0.25 | 0.25 | 96 | 1009.8 |
| 20260506211951 | 60 | 227 | 0.0 | 1.0 | 0.00 | 0.25 | 0.25 | 96 | 1009.7 |
| 20260506211449 | 60 | 227 | 0.0 | 1.0 | 0.00 | 0.25 | 0.25 | 96 | 1009.6 |
| 20260506210944 | 60 | 229 | 0.0 | 2.0 | 0.00 | 0.25 | 0.25 | 96 | 1009.5 |
| 20260506210711 | 60 | 229 | 0.0 | 2.0 | 0.00 | 0.25 | 0.25 | 96 | 1009.4 |
| 20260506210403 | 60 | 247 | 0.0 | 2.0 | 0.00 | 0.25 | 0.25 | 96 | 1009.5 |
| 20260506205347 | 60 | 247 | 0.0 | 2.0 | 0.00 | 0.25 | 0.25 | 96 | 1009.4 |
| 20260506204823 | 60 | 247 | 1.0 | 3.0 | 0.00 | 0.25 | 0.25 | 96 | 1009.4 |
| 20260506204254 | 60 | 253 | 1.0 | 2.0 | 0.00 | 0.25 | 0.25 | 96 | 1009.4 |
| 20260506204014 | 60 | 237 | 0.0 | 2.0 | 0.00 | 0.25 | 0.25 | 96 | 1009.2 |
| 20260506203247 | 60 | 237 | 1.0 | 3.0 | 0.00 | 0.25 | 0.25 | 96 | 1009.3 |
| 20260506202742 | 60 | 233 | 0.0 | 3.0 | 0.00 | 0.25 | 0.25 | 96 | 1009.3 |
| 20260506202240 | 59 | 97 | 0.0 | 1.0 | 0.00 | 0.25 | 0.25 | 96 | 1009.4 |
| 20260506201732 | 59 | 97 | 0.0 | 1.0 | 0.00 | 0.25 | 0.25 | 96 | 1009.3 |
| 20260506201226 | 59 | 97 | 0.0 | 2.0 | 0.00 | 0.25 | 0.25 | 96 | 1009.4 |
| 20260506200955 | 59 | 97 | 0.0 | 2.0 | 0.00 | 0.25 | 0.25 | 96 | 1009.3 |
| 20260506200200 | 59 | 93 | 0.0 | 1.0 | 0.00 | 0.25 | 0.25 | 96 | 1009.3 |
| 20260506195703 | 59 | 93 | 0.0 | 2.0 | 0.01 | 0.25 | 0.25 | 96 | 1009.4 |
| 20260506195133 | 59 | 94 | 0.0 | 2.0 | 0.01 | 0.25 | 0.25 | 96 | 1009.4 |
| 20260506194604 | 59 | 93 | 0.0 | 4.0 | 0.01 | 0.25 | 0.25 | 96 | 1009.3 |
| 20260506194331 | 59 | 93 | 1.0 | 4.0 | 0.01 | 0.25 | 0.25 | 96 | 1009.3 |
| 20260506193535 | 59 | 227 | 1.0 | 3.0 | 0.01 | 0.25 | 0.25 | 96 | 1009.4 |
| 20260506193034 | 59 | 195 | 1.0 | 1.0 | 0.01 | 0.25 | 0.25 | 96 | 1009.4 |
| 20260506193005 | 59 | 195 | 1.0 | 2.0 | 0.01 | 0.25 | 0.25 | 96 | 1009.4 |
| 20260506192021 | 59 | 167 | 1.0 | 2.0 | 0.01 | 0.25 | 0.25 | 96 | 1009.5 |
| 20260506191458 | 59 | 142 | 1.0 | 2.0 | 0.01 | 0.25 | 0.25 | 96 | 1009.4 |
| 20260506190925 | 59 | 142 | 1.0 | 2.0 | 0.01 | 0.25 | 0.25 | 96 | 1009.5 |
| 20260506190404 | 59 | 140 | 0.0 | 2.0 | 0.01 | 0.25 | 0.25 | 96 | 1009.4 |
| 20260506185904 | 59 | 137 | 0.0 | 2.0 | 0.00 | 0.24 | 0.25 | 96 | 1009.5 |
| 20260506185402 | 59 | 137 | 1.0 | 4.0 | 0.00 | 0.24 | 0.24 | 96 | 1009.4 |
| 20260506184902 | 59 | 200 | 1.0 | 4.0 | 0.00 | 0.24 | 0.24 | 96 | 1009.5 |
| 20260506184359 | 58 | 203 | 1.0 | 4.0 | 0.00 | 0.24 | 0.24 | 96 | 1009.5 |
| 20260506183903 | 58 | 222 | 1.0 | 4.0 | 0.00 | 0.24 | 0.24 | 96 | 1009.5 |
| 20260506183342 | 58 | 296 | 1.0 | 4.0 | 0.00 | 0.24 | 0.24 | 96 | 1009.6 |
| 20260506183323 | 58 | 125 | 1.0 | 10.0 | 0.00 | 0.24 | 0.24 | 96 | 1009.5 |
| 20260506182600 | 58 | 123 | 2.0 | 10.0 | 0.00 | 0.24 | 0.24 | 96 | 1009.6 |
| 20260506181814 | 58 | 186 | 1.0 | 5.0 | 0.00 | 0.24 | 0.24 | 96 | 1009.5 |
| 20260506181315 | 59 | 233 | 1.0 | 5.0 | 0.00 | 0.24 | 0.24 | 96 | 1009.5 |
| 20260506180746 | 58 | 233 | 2.0 | 5.0 | 0.00 | 0.24 | 0.24 | 96 | 1009.5 |
| 20260506180509 | 58 | 160 | 1.0 | 4.0 | 0.00 | 0.24 | 0.24 | 96 | 1009.6 |
| 20260506175943 | 59 | 226 | 1.0 | 3.0 | 0.00 | 0.24 | 0.24 | 96 | 1009.5 |
| 20260506175214 | 59 | 203 | 1.0 | 3.0 | 0.00 | 0.24 | 0.24 | 96 | 1009.6 |
| 20260506174651 | 58 | 201 | 1.0 | 3.0 | 0.00 | 0.24 | 0.24 | 96 | 1009.6 |
| 20260506174149 | 58 | 222 | 1.0 | 4.0 | 0.00 | 0.24 | 0.24 | 96 | 1009.6 |
| 20260506173650 | 58 | 220 | 1.0 | 4.0 | 0.00 | 0.24 | 0.24 | 96 | 1009.6 |
| 20260506173151 | 58 | 227 | 1.0 | 7.0 | 0.00 | 0.24 | 0.24 | 96 | 1009.6 |
| 20260506172843 | 58 | 228 | 1.0 | 7.0 | 0.00 | 0.24 | 0.24 | 96 | 1009.5 |
| 20260506172121 | 58 | 158 | 1.0 | 4.0 | 0.00 | 0.24 | 0.24 | 96 | 1009.5 |
| 20260506171550 | 58 | 245 | 1.0 | 7.0 | 0.00 | 0.24 | 0.24 | 96 | 1009.5 |
| 20260506171021 | 58 | 190 | 2.0 | 7.0 | 0.00 | 0.24 | 0.24 | 96 | 1009.6 |
| 20260506170518 | 58 | 248 | 2.0 | 7.0 | 0.00 | 0.24 | 0.24 | 96 | 1009.5 |
| 20260506170013 | 58 | 223 | 2.0 | 7.0 | 0.00 | 0.24 | 0.24 | 96 | 1009.6 |
| 20260506165447 | 58 | 235 | 2.0 | 8.0 | 0.00 | 0.24 | 0.24 | 96 | 1009.6 |
| 20260506164941 | 58 | 181 | 1.0 | 8.0 | 0.00 | 0.24 | 0.24 | 96 | 1009.6 |
| 20260506164642 | 58 | 257 | 1.0 | 4.0 | 0.00 | 0.24 | 0.24 | 96 | 1009.5 |
| 20260506163846 | 57 | 154 | 1.0 | 10.0 | 0.00 | 0.24 | 0.24 | 96 | 1009.5 |
| 20260506163343 | 57 | 86 | 2.0 | 10.0 | 0.00 | 0.24 | 0.24 | 96 | 1009.6 |
| 20260506162818 | 57 | 226 | 2.0 | 9.0 | 0.00 | 0.24 | 0.24 | 96 | 1009.6 |
| 20260506162252 | 57 | 179 | 2.0 | 9.0 | 0.00 | 0.24 | 0.24 | 96 | 1009.6 |
| 20260506161727 | 57 | 178 | 1.0 | 8.0 | 0.00 | 0.24 | 0.24 | 96 | 1009.6 |
| 20260506161200 | 57 | 239 | 2.0 | 5.0 | 0.00 | 0.24 | 0.24 | 96 | 1009.4 |
| 20260506160701 | 57 | 200 | 2.0 | 5.0 | 0.00 | 0.24 | 0.24 | 96 | 1009.3 |
| 20260506160132 | 57 | 187 | 2.0 | 7.0 | 0.00 | 0.24 | 0.24 | 96 | 1009.5 |
| 20260506155630 | 56 | 239 | 2.0 | 7.0 | 0.00 | 0.24 | 0.24 | 95 | 1009.5 |
| 20260506155331 | 56 | 38 | 2.0 | 5.0 | 0.01 | 0.24 | 0.24 | 95 | 1009.8 |
| 20260506154540 | 56 | 190 | 2.0 | 6.0 | 0.01 | 0.24 | 0.24 | 95 | 1009.7 |
| 20260506154016 | 56 | 179 | 2.0 | 6.0 | 0.01 | 0.24 | 0.24 | 95 | 1009.8 |
| 20260506153448 | 56 | 208 | 2.0 | 6.0 | 0.02 | 0.24 | 0.24 | 95 | 1009.6 |
| 20260506152947 | 56 | 160 | 2.0 | 6.0 | 0.02 | 0.24 | 0.24 | 95 | 1009.6 |
| 20260506152419 | 56 | 238 | 3.0 | 10.0 | 0.03 | 0.24 | 0.24 | 95 | 1009.5 |
| 20260506151920 | 56 | 190 | 2.0 | 10.0 | 0.03 | 0.24 | 0.24 | 95 | 1009.5 |
| 20260506151400 | 56 | 224 | 2.0 | 5.0 | 0.03 | 0.24 | 0.24 | 95 | 1009.5 |
| 20260506150903 | 56 | 249 | 2.0 | 6.0 | 0.04 | 0.24 | 0.24 | 95 | 1009.4 |
| 20260506150402 | 56 | 250 | 2.0 | 6.0 | 0.04 | 0.24 | 0.24 | 95 | 1009.7 |
| 20260506145857 | 56 | 264 | 2.0 | 5.0 | 0.04 | 0.24 | 0.24 | 95 | 1009.7 |
| 20260506145401 | 56 | 185 | 2.0 | 5.0 | 0.04 | 0.23 | 0.23 | 95 | 1009.6 |
| 20260506144831 | 56 | 225 | 2.0 | 8.0 | 0.04 | 0.23 | 0.23 | 94 | 1009.5 |
| 20260506144330 | 56 | 192 | 2.0 | 8.0 | 0.04 | 0.23 | 0.23 | 94 | 1009.7 |
| 20260506143833 | 56 | 179 | 2.0 | 8.0 | 0.04 | 0.23 | 0.23 | 94 | 1009.7 |
| 20260506143314 | 56 | 209 | 2.0 | 6.0 | 0.04 | 0.22 | 0.22 | 94 | 1010.1 |
| 20260506143305 | 56 | 232 | 2.0 | 6.0 | 0.03 | 0.21 | 0.22 | 94 | 1010.1 |
| 20260506142310 | 56 | 219 | 2.0 | 6.0 | 0.04 | 0.21 | 0.21 | 94 | 1010.2 |
| 20260506141808 | 56 | 350 | 1.0 | 5.0 | 0.04 | 0.21 | 0.21 | 94 | 1010.1 |
| 20260506141244 | 56 | 255 | 2.0 | 9.0 | 0.04 | 0.20 | 0.20 | 94 | 1010.2 |
| 20260506140726 | 56 | 239 | 3.0 | 9.0 | 0.05 | 0.20 | 0.20 | 94 | 1010.1 |
| 20260506140423 | 56 | 256 | 3.0 | 15.0 | 0.05 | 0.20 | 0.20 | 94 | 1010.1 |
| 20260506135634 | 56 | 177 | 3.0 | 15.0 | 0.06 | 0.20 | 0.20 | 94 | 1009.9 |
| 20260506135136 | 56 | 198 | 3.0 | 14.0 | 0.06 | 0.19 | 0.19 | 94 | 1009.9 |
| 20260506134634 | 56 | 276 | 2.0 | 12.0 | 0.06 | 0.19 | 0.19 | 94 | 1009.9 |
| 20260506134114 | 56 | 130 | 2.0 | 8.0 | 0.07 | 0.19 | 0.19 | 93 | 1009.9 |
| 20260506133558 | 56 | 202 | 3.0 | 8.0 | 0.06 | 0.18 | 0.18 | 93 | 1009.9 |
| 20260506133102 | 56 | 193 | 2.0 | 7.0 | 0.06 | 0.18 | 0.18 | 93 | 1009.9 |
| 20260506132537 | 56 | 196 | 2.0 | 5.0 | 0.06 | 0.17 | 0.17 | 93 | 1009.9 |
| 20260506132013 | 56 | 204 | 2.0 | 9.0 | 0.06 | 0.17 | 0.17 | 93 | 1010.1 |
| 20260506131714 | 56 | 185 | 2.0 | 9.0 | 0.06 | 0.16 | 0.16 | 93 | 1010.2 |
| 20260506130934 | 56 | 227 | 2.0 | 16.0 | 0.07 | 0.16 | 0.16 | 93 | 1010.1 |